Flag for Germany Weather past 2 weeks in Rheine, North Rhine-Westphalia, Germany

Now
59 °F

Partly sunny.


Feels Like: 58 °F
Forecast: 50 / 64 °F
Wind: 6 mph from Southwest

Location: Rheine-Bentlage

Current Time: Aug 21, 2014 at 12:51:42 PM

Latest Report: Aug 21, 2014 at 12:20 PM


Visibility: N/A

Pressure: 30.01 "Hg

Humidity: 68%

Dew point: 48 °F

Location of RheineLocation

Historic Weather in Rheine — Graph

°F

Rheine temperature yesterday

Maximum temperature yesterday: 61 °F (at 12:20 PM)
Minimum temperature yesterday: 48 °F (at 3:20 AM)
Average temperature yesterday: 54 °F

Past Weeks' High & Low Weather Summary

 TemperatureHumidityPressure
High79 °F (Aug 10, 3:20 PM)100% (Aug 7, 2:20 AM)30.01 "Hg (Aug 7, 2:20 AM)
Low48 °F (Aug 20, 3:20 AM)42% (Aug 6, 4:20 PM)29.53 "Hg (Aug 10, 7:20 PM)
Average61 °F80%29.82 "Hg
* Reported Aug 6 11:20 AM — Aug 21 11:20 AM, Rheine, Weather by CustomWeather, © 2014

Note: Actual official high and low records may vary slightly from our data, if they occured in-between our weather recording intervals... More about our weather records

Advertising

Rheine weather history for previous 24 hours

 ConditionsComfort  
Time TempWeatherWind HumidityBarometerVisibility
11:20 AM
Aug 21
57 °FScattered clouds.5 mph72%30.01 "HgN/A
10:20 AM55 °FScattered clouds.5 mph77%30.01 "Hg6 mi
9:20 AM50 °FFog.3 mph94%30.01 "Hg2 mi
8:46 AM50 °FFog.5 mph94%30.01 "Hg2 mi
8:20 AM50 °FFog.3 mph94%30.01 "Hg1 mi
7:20 AM48 °FFog.3 mph100%30.01 "Hg1 mi
6:20 AM48 °FCool.3 mph100%30.01 "Hg0 mi
5:20 AM48 °FCool.2 mph100%30.01 "Hg0 mi
4:20 AM48 °FCool.2 mph100%30.01 "Hg1 mi
3:20 AM48 °FCool.3 mph100%30.01 "Hg1 mi
2:20 AM50 °FCool.3 mph94%30.01 "Hg1 mi
1:20 AM50 °FCool.3 mph94%30.01 "Hg1 mi
12:20 AM50 °FCool.2 mph100%30.01 "Hg2 mi
11:20 PM
Aug 20
52 °FCool.2 mph94%30.01 "Hg2 mi
10:20 PM54 °FCool.3 mph88%30.01 "Hg3 mi
9:20 PM54 °FCool.3 mph88%30.01 "Hg3 mi
8:20 PM54 °FCool.2 mph88%29.98 "Hg3 mi
7:20 PM55 °FCool.3 mph77%29.98 "Hg3 mi
6:20 PM55 °FCool.2 mph88%29.98 "Hg3 mi
5:20 PM59 °FCool.3 mph72%29.98 "Hg3 mi
4:20 PM57 °FCool.2 mph77%29.98 "Hg3 mi
3:20 PM57 °FBroken clouds.No wind77%30.01 "HgN/A
2:20 PM55 °FSprinkles. Broken clouds.5 mph77%30.01 "HgN/A
1:20 PM57 °FScattered clouds.8 mph72%29.98 "HgN/A
12:20 PM61 °FScattered clouds.12 mph59%29.98 "HgN/A
Weather by CustomWeather, © 2014

See weather overviewHow to use our weather pages